User: anonymous   Login
Location: Gairloch Mountain Observatory
(46.1383°N, 60.9640°W)
Time: 14:29:59
(UTC-03:00)
Language:

CENTAUR R/B - Orbit

View from above orbital plane
View from above orbital plane
View from above satellite
View from above satellite

Ground track
Ground track

The orbit data is extracted from the following two-line orbital elements,

1 26906U 01040B   15141.93785469 0.00000050  00000-0  67106-4 0    03
2 26906  63.4635 113.4043 0289500 344.1381  15.8619 13.43956253    07
Epoch (UTC): 21 May 2015 22:30:30
Eccentricity: 0.0289500
inclination: 63.4635°
perigee height: 878 km
apogee height: 1311 km
right ascension of ascending node: 113.4043°
argument of perigee: 344.1381°
revolutions per day: 13.43956253
mean anomaly at epoch: 15.8619°
orbit number at epoch: 0

The dashed part of the orbit path shows where the satellite is in the earth's shadow,  

DLR